Location: Castelbiague
(43.0361°N, 0.9246°E)
Time: 04:01:39
(UTC+00:00)

Uribyol 2 - Pass Details

Date: 02 February 2022
Orbit: 781 x 797 km, 98.9° (Epoch: 21 May)

Event Time Altitude Azimuth Distance (km) Brightness Sun altitude
Rises 19:10:47 0° 188° (S) 3,252 ? -22.3°
Reaches altitude 10° 19:13:16 10° 197° (SSW) 2,328 ? -22.7°
Maximum altitude 19:17:57 35° 263° (W) 1,242 ? -23.6°
Drops below altitude 10° 19:22:40 10° 328° (NNW) 2,345 ? -24.4°
Sets 19:25:11 0° 338° (NNW) 3,279 ? -24.9°
